Time,TemperatureF,DewpointF,PressureIn,WindDirection,WindDirectionDegrees,WindSpeedMPH,WindSpeedGustMPH,Humidity,HourlyPrecipIn,Conditions,Clouds,dailyrainin,SoftwareType,DateUTC
2013-03-22 00:00:00,41.0,-99.9,30.18,WNW,300,25.0,29.0,-999,-99.99,,,-99.99,,2013-03-22 07:00:00,
2013-03-22 00:52:00,41.0,-99.9,30.18,WNW,300,25.0,29.0,-999,-99.99,,,-99.99,,2013-03-22 07:52:00,
2013-03-22 01:00:00,41.0,-99.9,30.18,WNW,300,22.0,29.0,-999,-99.99,,,-99.99,,2013-03-22 08:00:00,
2013-03-22 01:52:00,41.0,-99.9,30.18,WNW,300,22.0,29.0,-999,-99.99,,,-99.99,,2013-03-22 08:52:00,
2013-03-22 02:00:00,41.0,-99.9,30.18,WNW,290,27.0,34.0,-999,-99.99,,,-99.99,,2013-03-22 09:00:00,
2013-03-22 02:53:00,41.0,-99.9,30.18,WNW,290,27.0,34.0,-999,-99.99,,,-99.99,,2013-03-22 09:53:00,
2013-03-22 03:00:00,40.0,-99.9,30.19,WNW,300,25.0,29.0,-999,-99.99,,,-99.99,,2013-03-22 10:00:00,
2013-03-22 03:52:00,40.0,-99.9,30.19,WNW,300,25.0,29.0,-999,-99.99,,,-99.99,,2013-03-22 10:52:00,
2013-03-22 04:00:00,40.0,-99.9,30.20,NW,310,20.0,25.0,-999,-99.99,,,-99.99,,2013-03-22 11:00:00,
2013-03-22 04:52:00,40.0,-99.9,30.20,NW,310,20.0,25.0,-999,-99.99,,,-99.99,,2013-03-22 11:52:00,
2013-03-22 05:00:00,40.0,-99.9,30.21,NW,310,20.0,27.0,-999,-99.99,,,-99.99,,2013-03-22 12:00:00,
2013-03-22 05:52:00,40.0,-99.9,30.21,NW,310,20.0,27.0,-999,-99.99,,,-99.99,,2013-03-22 12:52:00,
2013-03-22 06:00:00,40.0,-99.9,30.22,NW,310,18.0,22.0,-999,-99.99,,,-99.99,,2013-03-22 13:00:00,
2013-03-22 06:53:00,40.0,-99.9,30.22,NW,310,18.0,22.0,-999,-99.99,,,-99.99,,2013-03-22 13:53:00,
2013-03-22 07:00:00,39.0,-99.9,30.23,NW,320,18.0,20.0,-999,-99.99,,,-99.99,,2013-03-22 14:00:00,
2013-03-22 07:52:00,39.0,-99.9,30.23,NW,320,18.0,20.0,-999,-99.99,,,-99.99,,2013-03-22 14:52:00,
2013-03-22 08:00:00,39.0,-99.9,30.24,WNW,300,18.0,20.0,-999,-99.99,,,-99.99,,2013-03-22 15:00:00,
2013-03-22 08:53:00,39.0,-99.9,30.24,WNW,300,18.0,20.0,-999,-99.99,,,-99.99,,2013-03-22 15:53:00,
2013-03-22 09:00:00,39.0,-99.9,30.27,NW,310,16.0,18.0,-999,-99.99,,,-99.99,,2013-03-22 16:00:00,
2013-03-22 09:53:00,39.0,-99.9,30.27,NW,310,16.0,18.0,-999,-99.99,,,-99.99,,2013-03-22 16:53:00,
2013-03-22 10:00:00,40.0,-99.9,30.28,WNW,300,13.0,18.0,-999,-99.99,,,-99.99,,2013-03-22 17:00:00,
2013-03-22 10:53:00,40.0,-99.9,30.28,WNW,300,13.0,18.0,-999,-99.99,,,-99.99,,2013-03-22 17:53:00,
2013-03-22 11:00:00,40.0,-99.9,30.29,WNW,290,16.0,18.0,-999,-99.99,,,-99.99,,2013-03-22 18:00:00,
2013-03-22 11:52:00,40.0,-99.9,30.29,WNW,290,16.0,18.0,-999,-99.99,,,-99.99,,2013-03-22 18:52:00,
2013-03-22 12:00:00,40.0,-99.9,30.30,West,280,13.0,16.0,-999,-99.99,,,-99.99,,2013-03-22 19:00:00,
2013-03-22 12:52:00,40.0,-99.9,30.30,West,280,13.0,16.0,-999,-99.99,,,-99.99,,2013-03-22 19:52:00,
2013-03-22 13:00:00,42.0,-99.9,30.31,West,270,18.0,20.0,-999,-99.99,,,-99.99,,2013-03-22 20:00:00,
2013-03-22 13:52:00,42.0,-99.9,30.31,West,270,18.0,20.0,-999,-99.99,,,-99.99,,2013-03-22 20:52:00,
2013-03-22 14:00:00,42.0,-99.9,30.32,West,270,16.0,20.0,-999,-99.99,,,-99.99,,2013-03-22 21:00:00,
2013-03-22 14:53:00,42.0,-99.9,30.32,West,270,16.0,20.0,-999,-99.99,,,-99.99,,2013-03-22 21:53:00,
2013-03-22 15:00:00,42.0,-99.9,30.32,West,280,16.0,20.0,-999,-99.99,,,-99.99,,2013-03-22 22:00:00,
2013-03-22 15:53:00,42.0,-99.9,30.32,West,280,16.0,20.0,-999,-99.99,,,-99.99,,2013-03-22 22:53:00,
2013-03-22 16:00:00,43.0,-99.9,30.33,West,280,16.0,18.0,-999,-99.99,,,-99.99,,2013-03-22 23:00:00,
2013-03-22 16:52:00,43.0,-99.9,30.33,West,280,16.0,18.0,-999,-99.99,,,-99.99,,2013-03-22 23:52:00,
2013-03-22 17:00:00,44.0,-99.9,30.33,West,280,11.0,13.0,-999,-99.99,,,-99.99,,2013-03-23 00:00:00,
2013-03-22 17:52:00,44.0,-99.9,30.33,West,280,11.0,13.0,-999,-99.99,,,-99.99,,2013-03-23 00:52:00,
2013-03-22 18:00:00,44.0,-99.9,30.32,West,270,11.0,11.0,-999,-99.99,,,-99.99,,2013-03-23 01:00:00,
2013-03-22 18:53:00,44.0,-99.9,30.32,West,270,11.0,11.0,-999,-99.99,,,-99.99,,2013-03-23 01:53:00,
2013-03-22 19:00:00,44.0,-99.9,30.32,West,280,9.0,11.0,-999,-99.99,,,-99.99,,2013-03-23 02:00:00,
2013-03-22 19:52:00,44.0,-99.9,30.32,West,280,9.0,11.0,-999,-99.99,,,-99.99,,2013-03-23 02:52:00,
2013-03-22 20:00:00,44.0,-99.9,30.34,WNW,290,7.0,7.0,-999,-99.99,,,-99.99,,2013-03-23 03:00:00,
2013-03-22 20:54:00,44.0,-99.9,30.34,WNW,290,7.0,7.0,-999,-99.99,,,-99.99,,2013-03-23 03:54:00,
2013-03-22 21:00:00,44.0,-99.9,30.36,West,260,4.0,7.0,-999,-99.99,,,-99.99,,2013-03-23 04:00:00,
2013-03-22 21:53:00,44.0,-99.9,30.36,West,260,4.0,7.0,-999,-99.99,,,-99.99,,2013-03-23 04:53:00,
2013-03-22 22:00:00,43.0,-99.9,30.36,North,350,7.0,9.0,-999,-99.99,,,-99.99,,2013-03-23 05:00:00,
2013-03-22 22:53:00,43.0,-99.9,30.36,North,350,7.0,9.0,-999,-99.99,,,-99.99,,2013-03-23 05:53:00,
2013-03-22 23:00:00,43.0,-99.9,30.37,East,80,13.0,16.0,-999,-99.99,,,-99.99,,2013-03-23 06:00:00,
2013-03-22 23:52:00,43.0,-99.9,30.37,East,80,13.0,16.0,-999,-99.99,,,-99.99,,2013-03-23 06:52:00,